Home   Weather   Colombia   Past weeks
Flag for Mexico

Past Weather in Colombia, Nuevo León, Mexico — Yesterday and Last 2 Weeks

Now
66 °F

Overcast.


Feels Like: 66 °F
Forecast: 67 / 55 °F
Wind: 9 mph from Southeast

Location: Laredo International Airport

Current Time: Mar 18, 2019 at 7:50:37 pm

Latest Report: Mar 18, 2019 at 6:56 pm


Visibility: 10 mi

Pressure: 30.21 "Hg

Humidity: 34%

Dew Point: 37 °F

Location of ColombiaLocation

Past Weather in Colombia — Graph

°F

Colombia Temperature Yesterday

Maximum temperature yesterday: 63 °F (at 4:56 pm)
Minimum temperature yesterday: 51 °F (at 12:56 am)
Average temperature yesterday: 56 °F

High & Low Weather Summary for the Past Weeks

 TemperatureHumidityPressure
High96 °F (Mar 13, 5:56 pm)96% (Mar 10, 5:56 am)30.58 "Hg (Mar 10, 5:56 am)
Low36 °F (Mar 5, 5:56 am)13% (Mar 13, 5:56 pm)29.56 "Hg (Mar 13, 5:56 pm)
Average64 °F58%30.12 "Hg
* Reported Mar 3 4:26 pm — Mar 18 5:56 pm, Colombia. Weather by CustomWeather, © 2019

Note: Actual official high and low records may vary slightly from our data, if they occured in-between our weather recording intervals... More about our weather records

Advertising

Colombia Weather History for the Previous 24 Hours

Scroll right to see more
 ConditionsComfort  
Time TempWeatherWind HumidityBarometerVisibility
5:56 pm
Mon, Mar 18
69 °FPassing clouds.9 mph27%30.19 "Hg10 mi
4:56 pm67 °FPartly sunny.12 mph26%30.19 "Hg10 mi
3:56 pm67 °FOvercast.8 mph25%30.23 "Hg10 mi
2:56 pm67 °FPartly sunny.6 mph27%30.26 "Hg10 mi
1:56 pm65 °FMostly cloudy.8 mph33%30.29 "Hg10 mi
12:56 pm64 °FOvercast.7 mph37%30.32 "Hg10 mi
11:56 am58 °FLight rain. Partly sunny.No wind58%30.35 "Hg10 mi
10:56 am56 °FLight rain. Overcast.5 mph65%30.35 "Hg10 mi
9:56 am56 °FLight rain. More clouds than sun.5 mph65%30.34 "Hg10 mi
8:56 am54 °FSunny.No wind64%30.32 "Hg10 mi
7:56 am52 °FScattered clouds.No wind66%30.29 "Hg10 mi
6:56 am52 °FPassing clouds.3 mph66%30.27 "Hg10 mi
5:56 am52 °FPassing clouds.No wind64%30.25 "Hg10 mi
4:56 am53 °FClear.No wind61%30.25 "Hg10 mi
3:56 am53 °FClear.5 mph56%30.27 "Hg10 mi
2:56 am53 °FClear.No wind56%30.27 "Hg10 mi
1:56 am54 °FClear.No wind53%30.28 "Hg10 mi
12:56 am55 °FClear.5 mph51%30.30 "Hg10 mi
11:56 pm
Sun, Mar 17
57 °FPassing clouds.6 mph46%30.32 "Hg10 mi
10:56 pm56 °FPassing clouds.3 mph47%30.31 "Hg10 mi
9:56 pm58 °FPassing clouds.7 mph43%30.31 "Hg10 mi
8:56 pm57 °FClear.7 mph42%30.29 "Hg10 mi
7:56 pm59 °FClear.5 mph36%30.27 "Hg10 mi
Weather by CustomWeather, © 2019

See weather overview